Location: ??????
(33.3472°N, 35.4764°E)
Time: 23:56:13
(UTC+00:00)

Cosmos 1766 Rocket - Pass Details

Date: 21 August 2019
Orbit: 606 x 632 km, 82.5° (Epoch: 18 September)

Event Time Altitude Azimuth Distance (km) Brightness Sun altitude
Rises 01:17:40 0° 352° (N) 2,930 7.3 -21.3°
Reaches altitude 10° 01:19:55 10° 351° (N) 2,019 6.4 -20.9°
Maximum altitude 01:24:23 79° 265° (W) 647 3.4 -20.1°
Enters shadow 01:27:01 24° 181° (S) 1,297 4.9 -19.6°
